HB9SZU-7 Weather Reports


time (UTC)temp
F
wind
direction
speed
knots
gust
knots
rain 1hr
in
rain 24hr
in
rain mn
in
humidity
%
barometer
mb
20260505193750 48 0.0 0.0 0.00 0.00 0.00 82 931.9
20260505192150 49 0.0 0.0 0.00 0.00 0.00 83 931.7
20260505190550 49 0.0 0.0 0.00 0.00 0.00 83 931.6
20260505184950 48 0.0 0.0 0.00 0.00 0.00 83 931.6
20260505183349 48 0.0 0.0 0.00 0.00 0.00 83 931.7
20260505181749 48 0.0 0.0 0.00 0.00 0.00 82 931.6
20260505180150 48 0.0 0.0 0.00 0.00 0.00 82 931.6
20260505174550 48 0.0 0.0 0.00 0.00 0.00 82 931.7
20260505172949 49 0.0 0.0 0.00 0.00 0.00 82 931.7
20260505171350 49 0.0 0.0 0.00 0.00 0.00 82 931.7
20260505165750 49 0.0 0.0 0.00 0.00 0.00 82 931.7
20260505164150 48 0.0 0.0 0.00 0.00 0.00 81 931.8
20260505162550 48 0.0 0.0 0.00 0.00 0.00 81 931.9
20260505160949 49 0.0 0.0 0.00 0.00 0.00 81 932.1
20260505152150 49 0.0 0.0 0.00 0.00 0.00 81 932.0
20260505150550 49 0.0 0.0 0.00 0.00 0.00 81 932.0
20260505140150 49 0.0 0.0 0.00 0.00 0.00 81 932.4
20260505124150 49 0.0 0.0 0.00 0.00 0.00 80 932.7
20260505122549 49 0.0 0.0 0.00 0.00 0.00 80 932.6
20260505120950 49 0.0 0.0 0.00 0.00 0.00 79 932.8
20260505115350 49 0.0 0.0 0.00 0.00 0.00 78 932.8
20260505113750 50 0.0 0.0 0.00 0.00 0.00 79 932.9
20260505112150 50 0.0 0.0 0.00 0.00 0.00 79 932.9
20260505110550 50 0.0 0.0 0.00 0.00 0.00 79 933.1
20260505101750 49 0.0 0.0 0.00 0.00 0.00 80 933.3
20260505100150 48 0.0 0.0 0.00 0.00 0.00 79 933.2
20260505094549 48 0.0 0.0 0.00 0.00 0.00 79 933.1
20260505092950 48 0.0 0.0 0.00 0.00 0.00 79 933.1
20260505091350 48 0.0 0.0 0.00 0.00 0.00 79 933.1
20260505085750 49 0.0 0.0 0.00 0.00 0.00 78 933.0
20260505084150 49 0.0 0.0 0.00 0.00 0.00 78 933.0
20260505082550 49 0.0 0.0 0.00 0.00 0.00 77 932.9
20260505080950 49 0.0 0.0 0.00 0.00 0.00 77 932.9
20260505075349 49 0.0 0.0 0.00 0.00 0.00 76 932.9
20260505073750 50 0.0 0.0 0.00 0.00 0.00 76 932.8
20260505072150 50 0.0 0.0 0.00 0.00 0.00 75 933.0
20260505070550 50 0.0 0.0 0.00 0.00 0.00 74 932.9
20260505064950 50 0.0 0.0 0.00 0.00 0.00 74 932.9
20260505063350 50 0.0 0.0 0.00 0.00 0.00 71 932.9
20260505061750 51 0.0 0.0 0.00 0.00 0.00 70 933.0
20260505060150 51 0.0 0.0 0.00 0.00 0.00 68 932.8
20260505054549 52 0.0 0.0 0.00 0.00 0.00 67 932.8
20260505052949 52 0.0 0.0 0.00 0.00 0.00 67 932.7
20260505051350 52 0.0 0.0 0.00 0.00 0.00 64 932.5
20260505040950 53 0.0 0.0 0.00 0.00 0.00 60 932.3
20260505035349 53 0.0 0.0 0.00 0.00 0.00 59 932.3
20260505033750 53 0.0 0.0 0.00 0.00 0.00 59 932.8
20260505032150 53 0.0 0.0 0.00 0.00 0.00 59 932.8
20260505030549 53 0.0 0.0 0.00 0.00 0.00 59 932.8
20260505024949 53 0.0 0.0 0.00 0.00 0.00 59 933.0
20260505023350 53 0.0 0.0 0.00 0.00 0.00 59 933.0
20260505021750 54 0.0 0.0 0.00 0.00 0.00 58 933.4
20260505020150 54 0.0 0.0 0.00 0.00 0.00 58 933.3
20260505014549 54 0.0 0.0 0.00 0.00 0.00 57 933.4
20260505012950 54 0.0 0.0 0.00 0.00 0.00 58 933.7
20260505011350 54 0.0 0.0 0.00 0.00 0.00 57 933.7
20260505005750 54 0.0 0.0 0.00 0.00 0.00 58 934.2
20260505004150 54 0.0 0.0 0.00 0.00 0.00 57 934.6
20260505002550 54 0.0 0.0 0.00 0.00 0.00 57 934.7
20260505000950 54 0.0 0.0 0.00 0.00 0.00 57 935.0
20260504235350 54 0.0 0.0 0.00 0.00 0.00 57 935.2
20260504233750 54 0.0 0.0 0.00 0.00 0.00 57 935.4
20260504232150 54 0.0 0.0 0.00 0.00 0.00 57 935.6
20260504230549 54 0.0 0.0 0.00 0.00 0.00 57 935.7
20260504224949 54 0.0 0.0 0.00 0.00 0.00 57 935.9
20260504223350 54 0.0 0.0 0.00 0.00 0.00 57 936.0
20260504221749 55 0.0 0.0 0.00 0.00 0.00 56 936.2
20260504220149 55 0.0 0.0 0.00 0.00 0.00 57 936.3
20260504214550 55 0.0 0.0 0.00 0.00 0.00 56 936.4
20260504212950 56 0.0 0.0 0.00 0.00 0.00 55 936.5
20260504211350 56 0.0 0.0 0.00 0.00 0.00 55 936.6
20260504205749 57 0.0 0.0 0.00 0.00 0.00 55 936.7
20260504204149 57 0.0 0.0 0.00 0.00 0.00 55 936.7
20260504202550 57 0.0 0.0 0.00 0.00 0.00 55 936.6
20260504200949 58 0.0 0.0 0.00 0.00 0.00 54 936.6
20260504195349 58 0.0 0.0 0.00 0.00 0.00 54 936.6